Location: Unspecified
(41.9000°N, 12.4830°E)
Time: 18:35:39
(UTC+02:00)

ISS - Visible Passes

Search period start: 24 July 2017 00:00
Search period end: 03 August 2017 00:00
Orbit: 400 x 408 km, 51.6° (Epoch: 25 July)

Date Brightness Start Highest point End Pass type
(mag) Time Alt. Az. Time Alt. Az. Time Alt. Az.
24 Jul -0.6 01:01:23 10° NW 01:03:23 15° N 01:05:22 10° NNE visible
24 Jul -1.1 02:38:13 10° NW 02:40:45 20° NNE 02:43:17 10° ENE visible
24 Jul -3.9 04:14:20 10° NW 04:17:36 86° NE 04:20:52 10° SE visible
24 Jul -2.8 22:30:35 10° WSW 22:33:45 47° NNW 22:36:54 10° NE visible
25 Jul -0.8 00:08:37 10° NW 00:10:48 17° N 00:13:00 10° NNE visible
25 Jul -0.8 01:46:00 10° NNW 01:48:13 17° N 01:50:26 10° NE visible
25 Jul -2.9 03:22:06 10° NW 03:25:17 48° NNE 03:28:27 10° ESE visible
25 Jul -2.5 04:59:02 10° W 05:01:33 20° SW 05:04:03 10° S visible
25 Jul -3.8 21:38:09 10° WSW 21:41:24 84° NNW 21:44:40 10° NE visible
25 Jul -1.1 23:15:45 10° WNW 23:18:16 20° NNW 23:20:47 10° NE visible
26 Jul -0.7 00:53:39 10° NNW 00:55:38 15° N 00:56:44 13° NNE visible
26 Jul -1.5 22:22:56 10° W 22:25:45 26° NNW 22:28:35 10° NE visible
27 Jul -0.6 00:01:05 10° NW 00:03:02 15° N 00:05:00 10° NE visible
27 Jul -0.5 01:37:45 10° NW 01:37:57 11° NNW 01:37:57 11° NNW visible
27 Jul -2.3 21:30:13 10° W 21:33:18 39° NNW 21:36:24 10° NE visible
27 Jul -0.7 23:08:19 10° NW 23:10:26 16° N 23:12:33 10° NNE visible
28 Jul -0.8 00:45:31 10° NNW 00:46:59 16° N 00:46:59 16° N visible
28 Jul -1.0 22:15:26 10° WNW 22:17:50 19° NNW 22:20:14 10° NNE visible
28 Jul -0.9 23:53:10 10° NNW 23:55:14 15° N 23:56:09 14° NNE visible
29 Jul -1.4 21:22:33 10° WNW 21:25:16 24° NNW 21:28:00 10° NE visible
29 Jul -0.8 23:00:39 10° NW 23:02:35 15° N 23:04:32 10° NE visible
30 Jul -0.7 00:37:09 10° NW 00:37:57 15° NNW 00:37:57 15° NNW visible
30 Jul -0.9 22:07:54 10° NW 22:09:56 15° N 22:11:58 10° NNE visible
30 Jul -1.2 23:44:54 10° NNW 23:47:12 19° N 23:47:12 19° N visible
31 Jul -1.0 21:15:01 10° WNW 21:17:17 17° NNW 21:19:35 10° NNE visible
31 Jul -1.1 22:52:34 10° NNW 22:54:42 16° N 22:56:27 12° NE visible
01 Aug -0.6 00:28:41 10° NW 00:29:04 13° NW 00:29:04 13° NW visible
01 Aug -1.0 22:00:04 10° NW 22:02:01 15° N 22:03:59 10° NE visible
01 Aug -1.4 23:36:26 10° NW 23:38:21 23° N 23:38:21 23° N visible
02 Aug -1.0 21:07:20 10° NW 21:09:20 15° N 21:11:19 10° NE visible
02 Aug -1.6 22:44:09 10° NW 22:46:42 20° NNE 22:47:38 18° NE visible
